CW3782 Weather Reports


time (UTC)temp
C
wind
direction
speed
KPH
gust
KPH
rain 1hr
cm
rain 24hr
cm
rain mn
cm
humidity
%
barometer
mb
20260510190705 31 119 0.0 3.2 0.00 0.13 0.08 37 1012.6
20260510190536 28 274 3.2 4.8 0.00 0.00 0.00 38 1014.2
20260510190205 31 357 1.6 8.0 0.00 0.13 0.08 34 1012.6
20260510190034 28 285 3.2 4.8 0.00 0.00 0.00 40 1014.1
20260510185705 31 59 1.6 4.8 0.03 0.13 0.08 36 1012.7
20260510185530 28 312 1.6 3.2 0.00 0.00 0.00 44 1014.1
20260510185028 27 332 1.6 4.8 0.00 0.00 0.00 44 1014.3
20260510184705 31 102 0.0 4.8 0.03 0.13 0.08 36 1012.7
20260510184525 28 291 3.2 4.8 0.00 0.00 0.00 40 1014.4
20260510184204 31 79 1.6 3.2 0.03 0.13 0.08 36 1012.9
20260510184020 28 273 3.2 6.4 0.00 0.00 0.00 40 1014.5
20260510183706 31 79 1.6 4.8 0.03 0.13 0.08 39 1012.9
20260510183515 29 205 0.0 3.2 0.00 0.00 0.00 40 1014.5
20260510183011 28 167 0.0 4.8 0.00 0.00 0.00 41 1014.4
20260510182705 31 146 1.6 4.8 0.03 0.13 0.08 38 1013.0
20260510182503 28 111 0.0 6.4 0.00 0.00 0.00 42 1014.6
20260510182206 31 57 1.6 3.2 0.03 0.13 0.08 39 1013.0
20260510181957 27 172 3.2 6.4 0.00 0.00 0.00 43 1014.6
20260510181455 27 190 0.0 4.8 0.00 0.00 0.00 45 1014.6
20260510181205 30 87 1.6 4.8 0.03 0.13 0.08 40 1013.0
20260510180951 27 269 0.0 4.8 0.00 0.00 0.00 44 1014.5
20260510180705 30 251 1.6 3.2 0.03 0.13 0.08 45 1013.0
20260510180449 27 254 4.8 6.4 0.00 0.00 0.00 45 1014.6
20260510180205 30 325 0.0 3.2 0.03 0.13 0.08 42 1013.1
20260510175945 27 322 0.0 4.8 0.00 0.00 0.00 46 1014.7
20260510175441 26 320 0.0 3.2 0.00 0.00 0.00 49 1014.6
20260510175205 29 89 0.0 1.6 0.00 0.10 0.05 42 1013.1
20260510174937 27 310 4.8 4.8 0.00 0.00 0.00 47 1014.7
20260510174435 28 315 1.6 8.0 0.00 0.00 0.00 43 1014.7
20260510174205 29 174 1.6 4.8 0.00 0.10 0.05 40 1013.0
20260510173932 27 284 1.6 6.4 0.00 0.00 0.00 45 1014.7
20260510173705 29 202 1.6 4.8 0.00 0.10 0.05 41 1013.1
20260510173428 26 328 0.0 3.2 0.00 0.00 0.00 51 1014.7
20260510172924 26 30 0.0 3.2 0.00 0.00 0.00 49 1014.6
20260510172706 29 166 0.0 1.6 0.00 0.10 0.05 44 1013.1
20260510172420 26 51 1.6 3.2 0.00 0.00 0.00 48 1014.8
20260510171916 26 62 1.6 3.2 0.00 0.00 0.00 48 1014.8
20260510171414 27 88 3.2 3.2 0.00 0.00 0.00 48 1014.8
20260510170910 26 97 3.2 4.8 0.00 0.00 0.00 48 1014.7
20260510170407 26 157 4.8 6.4 0.00 0.00 0.00 45 1015.0
20260510165902 27 79 3.2 3.2 0.00 0.00 0.00 47 1014.8
20260510165705 28 4 1.6 3.2 0.03 0.10 0.05 45 1013.3
20260510165358 27 158 1.6 4.8 0.00 0.00 0.00 45 1014.8
20260510165204 28 343 4.8 8.0 0.03 0.10 0.05 44 1013.3
20260510164856 26 271 3.2 4.8 0.00 0.00 0.00 48 1014.9
20260510164353 26 284 1.6 3.2 0.00 0.00 0.00 50 1015.0
20260510163852 26 302 3.2 4.8 0.00 0.00 0.00 47 1014.9
20260510163349 26 260 3.2 4.8 0.00 0.00 0.00 48 1015.0
20260510163205 27 106 1.6 3.2 0.03 0.13 0.05 49 1013.5
20260510162844 25 290 3.2 3.2 0.00 0.00 0.00 55 1015.0
20260510162341 25 83 3.2 4.8 0.00 0.00 0.00 51 1015.2
20260510162205 27 325 3.2 8.0 0.03 0.13 0.05 47 1013.6
20260510161836 25 257 0.0 3.2 0.00 0.00 0.00 53 1015.1
20260510161333 25 348 1.6 3.2 0.00 0.00 0.00 55 1015.1
20260510160830 25 294 1.6 4.8 0.00 0.00 0.00 53 1015.1
20260510160327 25 309 0.0 4.8 0.00 0.00 0.00 54 1015.0
20260510160205 27 55 1.6 4.8 0.00 0.10 0.03 49 1013.6
20260510155821 25 347 0.0 4.8 0.00 0.00 0.00 61 1015.2
20260510155318 25 169 0.0 3.2 0.00 0.00 0.00 55 1015.3
20260510155205 26 77 1.6 3.2 0.00 0.10 0.03 48 1013.6
20260510154814 25 22 0.0 4.8 0.00 0.00 0.00 59 1015.3
20260510154705 26 147 3.2 4.8 0.00 0.10 0.03 51 1013.7
20260510154310 25 159 3.2 4.8 0.00 0.00 0.00 54 1015.4
20260510154205 26 111 1.6 3.2 0.00 0.10 0.03 55 1013.8
20260510153804 24 326 1.6 4.8 0.00 0.00 0.00 58 1015.4
20260510153705 26 117 1.6 3.2 0.00 0.10 0.03 56 1014.0
20260510153300 25 292 3.2 4.8 0.00 0.00 0.00 55 1015.5
20260510152757 25 287 3.2 3.2 0.00 0.00 0.00 60 1015.6
20260510152254 23 324 0.0 4.8 0.00 0.00 0.00 59 1015.4
20260510152204 25 72 1.6 1.6 0.00 0.10 0.03 59 1013.8
20260510151750 23 320 0.0 3.2 0.00 0.00 0.00 60 1015.5
20260510151249 23 19 0.0 3.2 0.00 0.00 0.00 64 1015.4
20260510151206 25 331 1.6 3.2 0.00 0.10 0.03 60 1013.7
20260510150744 23 339 0.0 4.8 0.00 0.00 0.00 67 1015.3
20260510150704 25 56 1.6 4.8 0.00 0.10 0.03 63 1013.7
20260510150240 23 62 0.0 3.2 0.00 0.00 0.00 68 1015.1
20260510150205 24 165 1.6 3.2 0.00 0.10 0.03 64 1013.7
20260510145736 22 359 0.0 3.2 0.00 0.00 0.00 69 1015.3
20260510145233 22 284 0.0 3.2 0.00 0.00 0.00 71 1015.2
20260510144723 22 331 0.0 1.6 0.00 0.00 0.00 72 1015.2
20260510144704 24 45 1.6 3.2 0.00 0.10 0.03 66 1013.6
20260510144220 22 294 0.0 3.2 0.00 0.00 0.00 74 1015.5
20260510143715 22 269 0.0 3.2 0.00 0.00 0.00 75 1015.1
20260510143705 23 55 0.0 3.2 0.00 0.10 0.03 65 1013.6
20260510143212 22 310 1.6 3.2 0.00 0.00 0.00 75 1015.3
20260510143205 23 73 1.6 3.2 0.00 0.10 0.03 66 1013.6
20260510142708 21 261 3.2 4.8 0.00 0.00 0.00 76 1015.4
20260510142705 23 94 1.6 3.2 0.03 0.10 0.03 70 1013.6
20260510142205 21 306 0.0 1.6 0.00 0.00 0.00 79 1015.3
20260510141702 21 55 3.2 3.2 0.00 0.00 0.00 80 1015.2
20260510141204 22 61 1.6 3.2 0.03 0.10 0.03 73 1013.6
20260510141200 21 36 0.0 4.8 0.00 0.00 0.00 81 1015.2
20260510140705 22 75 0.0 1.6 0.03 0.10 0.03 75 1013.7
20260510140656 20 358 0.0 1.6 0.00 0.00 0.00 81 1015.2
20260510140205 22 82 1.6 1.6 0.03 0.10 0.03 76 1013.6
20260510140156 20 327 1.6 3.2 0.00 0.00 0.00 82 1015.3
20260510135651 20 310 0.0 3.2 0.00 0.00 0.00 82 1015.2
20260510135147 20 310 1.6 3.2 0.00 0.00 0.00 81 1015.4
20260510134704 21 35 1.6 3.2 0.03 0.10 0.03 80 1013.7
20260510134644 20 289 3.2 4.8 0.00 0.00 0.00 84 1015.4
20260510134142 20 161 0.0 1.6 0.00 0.00 0.00 88 1015.2
20260510133705 20 278 0.0 3.2 0.03 0.10 0.03 84 1013.6
20260510133638 20 333 0.0 3.2 0.00 0.00 0.00 89 1015.1
20260510133133 19 28 0.0 4.8 0.00 0.00 0.00 89 1015.1
20260510132630 19 351 0.0 1.6 0.00 0.00 0.00 90 1015.1
20260510132127 18 283 0.0 3.2 0.00 0.00 0.00 91 1015.1
20260510131705 19 304 0.0 1.6 0.00 0.08 0.00 91 1013.5
20260510131625 18 10 0.0 3.2 0.00 0.00 0.00 92 1015.1
20260510131205 19 326 1.6 3.2 0.00 0.08 0.00 92 1013.4
20260510131122 18 252 0.0 3.2 0.00 0.00 0.00 93 1015.1
20260510130705 18 95 0.0 3.2 0.00 0.08 0.00 93 1013.4
20260510130618 18 269 0.0 1.6 0.00 0.00 0.00 95 1015.2
20260510130205 18 302 0.0 1.6 0.00 0.08 0.00 94 1013.3
20260510130116 17 320 0.0 3.2 0.00 0.00 0.00 95 1014.9
20260510125705 18 317 0.0 0.0 0.00 0.08 0.00 94 1013.1
20260510125612 17 48 0.0 3.2 0.00 0.00 0.00 96 1014.7
20260510125108 17 309 0.0 3.2 0.00 0.00 0.00 97 1014.8
20260510124605 17 326 1.6 4.8 0.00 0.00 0.00 98 1014.7
20260510124102 17 309 0.0 3.2 0.00 0.00 0.00 99 1014.9
20260510123556 17 347 1.6 3.2 0.00 0.00 0.00 99 1014.7
20260510123204 17 252 0.0 3.2 0.00 0.08 0.00 94 1013.1
20260510123053 17 2 0.0 1.6 0.00 0.00 0.00 99 1014.5
20260510122704 17 302 0.0 1.6 0.00 0.08 0.00 94 1013.1
20260510122549 17 352 1.6 3.2 0.00 0.00 0.00 99 1014.7
20260510122046 17 293 0.0 3.2 0.00 0.00 0.00 99 1014.6
20260510121705 17 325 0.0 1.6 0.00 0.08 0.00 94 1013.0
20260510121543 17 29 0.0 1.6 0.00 0.00 0.00 99 1014.5
20260510121204 17 322 0.0 1.6 0.00 0.08 0.00 94 1012.9
20260510121040 17 336 0.0 1.6 0.00 0.00 0.00 99 1014.4
20260510120538 17 50 0.0 1.6 0.00 0.00 0.00 99 1014.5
20260510120205 16 335 0.0 1.6 0.00 0.08 0.00 94 1012.8
20260510120033 17 315 0.0 0.0 0.00 0.00 0.00 99 1014.5
20260510115530 16 315 0.0 1.6 0.00 0.00 0.00 99 1014.4
20260510115204 16 309 0.0 3.2 0.00 0.08 0.00 94 1012.8
20260510115027 16 5 0.0 1.6 0.00 0.00 0.00 99 1014.4
20260510114704 16 313 0.0 1.6 0.00 0.08 0.00 94 1012.7
20260510114522 16 44 0.0 3.2 0.00 0.00 0.00 99 1014.3
20260510114019 16 54 1.6 3.2 0.00 0.00 0.00 99 1014.3
20260510113514 16 142 0.0 1.6 0.00 0.00 0.00 99 1013.9
20260510113205 16 325 0.0 0.0 0.00 0.08 0.00 93 1012.5
20260510113012 16 137 0.0 1.6 0.00 0.00 0.00 99 1014.0
20260510112509 16 301 0.0 1.6 0.00 0.00 0.00 99 1013.9
20260510112005 16 129 0.0 0.0 0.00 0.00 0.00 99 1013.9
20260510111502 16 75 0.0 0.0 0.00 0.00 0.00 99 1013.8
20260510110957 16 124 0.0 1.6 0.00 0.00 0.00 99 1013.7
20260510110454 15 107 0.0 1.6 0.00 0.00 0.00 99 1013.7
20260510105950 15 130 0.0 1.6 0.00 0.00 0.00 99 1013.8
20260510105704 16 325 0.0 0.0 0.00 0.08 0.00 93 1012.0
20260510105445 15 117 0.0 0.0 0.00 0.00 0.00 99 1013.6
20260510105204 16 325 0.0 0.0 0.00 0.08 0.00 92 1011.9
20260510104940 15 117 0.0 1.6 0.00 0.00 0.00 99 1013.5
20260510104704 16 325 0.0 0.0 0.00 0.08 0.00 92 1011.7
20260510104437 15 155 0.0 1.6 0.00 0.00 0.00 99 1013.2
20260510103933 15 66 0.0 1.6 0.00 0.00 0.00 99 1013.1
20260510103432 15 77 0.0 1.6 0.00 0.00 0.00 99 1013.2
20260510102926 15 62 0.0 1.6 0.00 0.00 0.00 99 1013.0
20260510102422 15 321 0.0 0.0 0.00 0.00 0.00 99 1013.0
20260510102205 16 325 0.0 0.0 0.00 0.08 0.00 92 1011.5
20260510101920 15 321 0.0 0.0 0.00 0.00 0.00 99 1013.0
20260510101418 15 66 0.0 1.6 0.00 0.00 0.00 99 1012.7
20260510101205 16 325 0.0 0.0 0.00 0.08 0.00 92 1011.3
20260510100915 15 117 0.0 1.6 0.00 0.00 0.00 99 1012.8
20260510100705 16 325 0.0 0.0 0.00 0.08 0.00 92 1011.2
20260510100412 15 32 0.0 0.0 0.00 0.00 0.00 99 1012.7
20260510100204 16 325 0.0 0.0 0.00 0.08 0.00 92 1011.1
20260510095908 16 32 0.0 1.6 0.00 0.00 0.00 99 1012.6
20260510095704 16 325 0.0 0.0 0.00 0.08 0.00 92 1011.1
20260510095403 16 103 0.0 1.6 0.00 0.00 0.00 99 1012.9
20260510095204 16 325 0.0 0.0 0.00 0.08 0.00 92 1011.1
20260510094902 16 166 0.0 3.2 0.00 0.00 0.00 99 1012.8
20260510094357 15 135 0.0 1.6 0.00 0.00 0.00 99 1012.5
20260510093854 15 89 0.0 1.6 0.00 0.00 0.00 99 1012.7
20260510093350 15 113 0.0 3.2 0.00 0.00 0.00 99 1012.3
20260510092846 15 117 0.0 3.2 0.00 0.00 0.00 99 1012.3
20260510092704 16 325 0.0 0.0 0.00 0.08 0.00 92 1011.0
20260510092343 15 91 0.0 1.6 0.00 0.00 0.00 99 1012.3
20260510091838 15 104 0.0 1.6 0.00 0.00 0.00 99 1012.4
20260510091336 15 124 0.0 1.6 0.00 0.00 0.00 99 1012.1
20260510091204 16 325 0.0 0.0 0.00 0.08 0.00 92 1010.5
20260510090832 15 113 0.0 3.2 0.00 0.00 0.00 99 1012.2
20260510090329 15 130 0.0 3.2 0.00 0.00 0.00 99 1012.0
20260510090204 16 325 0.0 0.0 0.00 0.10 0.00 92 1010.5
20260510085824 15 62 0.0 0.0 0.00 0.00 0.00 99 1011.9
20260510085319 15 55 0.0 1.6 0.00 0.00 0.00 99 1011.9
20260510084815 15 25 0.0 0.0 0.00 0.00 0.00 99 1012.0
20260510084312 15 25 0.0 1.6 0.00 0.00 0.00 99 1011.8
20260510083809 15 62 0.0 0.0 0.00 0.00 0.00 99 1011.8
20260510083306 15 73 0.0 1.6 0.00 0.00 0.00 99 1011.7
20260510083204 16 325 0.0 0.0 0.00 0.10 0.00 91 1010.3
20260510082801 15 37 0.0 1.6 0.00 0.00 0.00 99 1011.9
20260510082704 16 325 0.0 0.0 0.00 0.10 0.00 91 1010.5
20260510082258 15 117 0.0 1.6 0.00 0.00 0.00 99 1011.9
20260510081756 15 142 0.0 3.2 0.00 0.00 0.00 99 1011.8
20260510081253 15 123 0.0 1.6 0.00 0.00 0.00 99 1011.8
20260510080749 15 62 0.0 0.0 0.00 0.00 0.00 99 1011.6
20260510080244 15 129 0.0 0.0 0.00 0.00 0.00 99 1011.6
20260510075741 15 66 0.0 0.0 0.00 0.00 0.00 99 1011.8
20260510075239 15 142 0.0 1.6 0.00 0.00 0.00 99 1011.7
20260510075204 16 325 0.0 0.0 0.00 0.10 0.00 90 1010.2
20260510074736 15 142 0.0 1.6 0.00 0.00 0.00 99 1011.7
20260510074232 15 126 0.0 1.6 0.00 0.00 0.00 99 1011.5
20260510073728 15 143 0.0 1.6 0.00 0.00 0.00 99 1011.8
20260510073705 16 325 0.0 0.0 0.00 0.10 0.00 90 1010.1
20260510073224 15 89 0.0 3.2 0.00 0.00 0.00 99 1011.6
20260510073205 16 325 0.0 0.0 0.00 0.10 0.00 90 1010.1
20260510072720 15 133 0.0 1.6 0.00 0.00 0.00 99 1011.7
20260510072705 16 325 0.0 0.0 0.00 0.10 0.00 90 1010.1
20260510072217 15 62 0.0 1.6 0.00 0.00 0.00 99 1011.7
20260510071714 15 104 0.0 1.6 0.00 0.00 0.00 99 1011.6
20260510071705 16 325 0.0 0.0 0.00 0.10 0.00 90 1010.0
20260510071210 15 71 0.0 1.6 0.00 0.00 0.00 99 1011.4
20260510071204 16 325 0.0 0.0 0.00 0.10 0.00 90 1010.0
20260510070708 15 37 0.0 1.6 0.00 0.00 0.00 99 1011.3
20260510070205 15 62 0.0 1.6 0.00 0.00 0.00 99 1011.6
20260510065705 16 325 0.0 0.0 0.00 0.10 0.00 89 1010.0
20260510065700 15 150 0.0 1.6 0.00 0.00 0.00 99 1011.5
20260510065204 16 325 0.0 0.0 0.00 0.10 0.00 89 1010.1
20260510065157 15 119 1.6 3.2 0.00 0.00 0.00 99 1012.0
20260510064653 15 138 0.0 3.2 0.00 0.00 0.00 99 1011.6
20260510064204 16 325 0.0 0.0 0.00 0.10 0.00 89 1010.1
20260510064151 15 154 0.0 1.6 0.00 0.00 0.00 99 1011.6
20260510063648 16 124 0.0 1.6 0.00 0.00 0.00 99 1011.5
20260510063204 16 325 0.0 0.0 0.00 0.10 0.00 89 1010.0
20260510063144 16 66 0.0 1.6 0.00 0.00 0.00 99 1011.8
20260510062704 16 325 0.0 0.0 0.00 0.10 0.00 89 1010.0
20260510062640 16 75 0.0 0.0 0.00 0.00 0.00 99 1011.7
20260510062136 16 336 0.0 0.0 0.00 0.00 0.00 99 1011.4
20260510061631 16 336 0.0 1.6 0.00 0.00 0.00 99 1011.6
20260510061204 16 325 0.0 0.0 0.00 0.10 0.00 88 1010.0
20260510061130 16 75 0.0 1.6 0.00 0.00 0.00 99 1011.4
20260510060625 16 129 0.0 0.0 0.00 0.00 0.00 99 1011.6
20260510060122 16 129 0.0 0.0 0.00 0.00 0.00 99 1011.6
20260510055704 16 325 0.0 0.0 0.00 0.10 0.00 89 1010.2
20260510055618 16 89 0.0 1.6 0.00 0.00 0.00 99 1011.8
20260510055117 16 89 0.0 0.0 0.00 0.00 0.00 99 1011.7
20260510054704 16 325 0.0 0.0 0.00 0.10 0.00 89 1010.5
20260510054612 16 142 0.0 1.6 0.00 0.00 0.00 99 1011.8
20260510054107 16 124 0.0 3.2 0.00 0.00 0.00 99 1011.8
20260510053704 16 325 0.0 0.0 0.00 0.10 0.00 89 1010.5
20260510053607 16 104 0.0 1.6 0.00 0.00 0.00 99 1011.9
20260510053104 16 113 0.0 1.6 0.00 0.00 0.00 99 1011.9
20260510052704 16 325 0.0 0.0 0.00 0.10 0.00 88 1010.5
20260510052559 16 137 0.0 1.6 0.00 0.00 0.00 99 1012.1
20260510052204 16 325 0.0 0.0 0.00 0.10 0.00 88 1010.5
20260510052056 16 160 0.0 3.2 0.00 0.00 0.00 99 1012.1
20260510051704 16 325 0.0 0.0 0.00 0.10 0.00 88 1010.5
20260510051551 16 104 0.0 3.2 0.00 0.00 0.00 99 1012.1
20260510051048 16 74 0.0 1.6 0.00 0.00 0.00 99 1012.1
20260510050704 16 325 0.0 0.0 0.00 0.10 0.00 88 1010.6
20260510050540 16 157 0.0 3.2 0.00 0.00 0.00 99 1012.0
20260510050205 16 325 0.0 0.0 0.00 0.10 0.00 88 1010.6
20260510050037 16 140 0.0 3.2 0.00 0.00 0.00 99 1012.1
20260510045534 16 144 0.0 3.2 0.00 0.00 0.00 99 1012.1
20260510045203 16 325 0.0 0.0 0.00 0.10 0.10 88 1010.6
20260510045030 16 33 0.0 3.2 0.00 0.00 0.00 99 1012.1
20260510044527 16 142 0.0 3.2 0.00 0.00 0.00 99 1012.3
20260510044204 16 325 0.0 0.0 0.03 0.10 0.10 88 1010.8
20260510044025 16 136 1.6 3.2 0.00 0.00 0.00 99 1012.4
20260510043520 16 138 1.6 3.2 0.00 0.00 0.00 99 1012.2
20260510043204 16 325 0.0 0.0 0.03 0.10 0.10 87 1010.7
20260510043015 16 140 0.0 4.8 0.00 0.00 0.00 99 1012.3
20260510042704 16 325 0.0 0.0 0.03 0.10 0.10 87 1010.8
20260510042509 16 155 3.2 3.2 0.00 0.00 0.00 99 1012.1
20260510042204 16 325 0.0 0.0 0.03 0.10 0.10 87 1010.6
20260510042005 16 116 0.0 3.2 0.00 0.00 0.00 99 1012.0
20260510041502 16 32 0.0 3.2 0.00 0.00 0.00 99 1012.1
20260510041204 17 325 0.0 0.0 0.03 0.10 0.10 87 1010.6
20260510041000 16 154 0.0 1.6 0.00 0.00 0.00 99 1012.2
20260510040456 16 32 0.0 0.0 0.00 0.00 0.00 99 1012.0
20260510035952 16 135 0.0 1.6 0.00 0.00 0.00 99 1012.1
20260510035705 17 325 0.0 0.0 0.03 0.10 0.10 87 1010.6
20260510035449 16 135 0.0 1.6 0.00 0.00 0.00 99 1012.1
20260510034948 16 154 0.0 1.6 0.00 0.00 0.00 99 1011.8
20260510034447 16 129 1.6 3.2 0.00 0.00 0.00 98 1012.0
20260510034205 17 325 0.0 0.0 0.00 0.08 0.08 86 1010.6
20260510033943 16 127 0.0 3.2 0.00 0.00 0.00 98 1012.0
20260510033706 17 325 0.0 0.0 0.00 0.08 0.08 86 1010.5
20260510033439 16 135 0.0 3.2 0.00 0.00 0.00 98 1012.0
20260510032937 16 49 0.0 3.2 0.00 0.00 0.00 98 1012.0
20260510032433 16 255 0.0 0.0 0.00 0.00 0.00 98 1012.0
20260510032206 17 325 0.0 0.0 0.00 0.08 0.08 85 1010.5
20260510031928 16 142 0.0 1.6 0.00 0.00 0.00 98 1012.0
20260510031705 17 325 0.0 0.0 0.00 0.08 0.08 85 1010.5
20260510031424 16 124 0.0 1.6 0.00 0.00 0.00 98 1011.9
20260510030919 16 37 0.0 0.0 0.00 0.00 0.00 98 1012.0
20260510030706 17 325 0.0 0.0 0.00 0.08 0.08 85 1010.4
20260510030415 16 117 0.0 1.6 0.00 0.00 0.00 98 1011.8
20260510025913 16 130 0.0 3.2 0.00 0.00 0.00 98 1012.0
20260510025705 17 325 0.0 0.0 0.00 0.08 0.08 84 1010.4
20260510025411 16 140 1.6 3.2 0.00 0.00 0.00 97 1011.7
20260510025206 17 325 0.0 0.0 0.00 0.08 0.08 84 1010.4
20260510024908 16 103 0.0 0.0 0.00 0.00 0.00 97 1012.0
20260510024706 17 325 0.0 0.0 0.00 0.08 0.08 84 1010.4
20260510024404 16 124 0.0 3.2 0.00 0.00 0.00 97 1011.9
20260510023900 16 135 0.0 1.6 0.00 0.00 0.00 97 1011.8
20260510023356 16 119 0.0 1.6 0.00 0.00 0.00 97 1011.6
20260510022854 17 76 0.0 3.2 0.00 0.00 0.00 97 1011.6
20260510022705 18 325 0.0 0.0 0.00 0.08 0.08 83 1010.2
20260510022353 17 129 0.0 1.6 0.00 0.00 0.00 96 1011.7
20260510021852 17 89 0.0 0.0 0.00 0.00 0.00 96 1011.6
20260510021350 17 89 0.0 1.6 0.00 0.00 0.00 96 1011.6
20260510021206 18 325 0.0 0.0 0.00 0.08 0.08 83 1010.1
20260510020846 17 135 0.0 0.0 0.00 0.00 0.00 96 1011.5
20260510020346 17 104 0.0 0.0 0.00 0.00 0.00 96 1011.5
20260510020206 18 325 0.0 0.0 0.00 0.08 0.08 82 1010.0
20260510015842 17 117 0.0 1.6 0.00 0.00 0.00 96 1011.6
20260510015705 18 325 0.0 0.0 0.00 0.08 0.08 82 1010.0
20260510015338 17 44 0.0 0.0 0.00 0.00 0.00 96 1011.6
20260510014833 17 343 0.0 0.0 0.00 0.00 0.00 95 1011.6
20260510014705 18 325 0.0 0.0 0.00 0.08 0.08 81 1010.0
20260510014331 17 343 0.0 0.0 0.00 0.00 0.00 95 1011.5
20260510014206 18 325 0.0 0.0 0.00 0.08 0.08 81 1010.0
20260510013827 17 343 0.0 1.6 0.00 0.00 0.00 95 1011.3
20260510013705 19 325 0.0 0.0 0.00 0.08 0.08 81 1009.8
20260510013323 17 315 0.0 0.0 0.00 0.00 0.00 95 1011.1
20260510012818 17 315 0.0 0.0 0.00 0.00 0.00 95 1011.1
20260510012317 17 315 0.0 0.0 0.00 0.00 0.00 95 1011.0
20260510012205 19 325 0.0 0.0 0.00 0.08 0.08 81 1009.5
20260510011813 17 50 0.0 0.0 0.00 0.00 0.00 94 1010.9
20260510011308 18 119 0.0 0.0 0.00 0.00 0.00 94 1010.6
20260510011205 20 325 0.0 0.0 0.00 0.08 0.08 80 1009.5
20260510010805 18 130 0.0 1.6 0.00 0.00 0.00 94 1010.4
20260510010303 18 120 0.0 1.6 0.00 0.00 0.00 94 1010.8
20260510005759 18 123 0.0 3.2 0.00 0.00 0.00 94 1010.7
20260510005255 18 133 0.0 1.6 0.00 0.00 0.00 93 1010.7
20260510004753 18 147 0.0 1.6 0.00 0.00 0.00 93 1010.5
20260510004251 18 116 0.0 3.2 0.00 0.00 0.00 93 1010.5
20260510003748 18 147 0.0 1.6 0.00 0.00 0.00 92 1010.6
20260510003706 20 325 0.0 0.0 0.00 0.08 0.08 79 1009.2
20260510003244 18 130 0.0 1.6 0.00 0.00 0.00 92 1010.3
20260510003205 21 325 0.0 0.0 0.00 0.08 0.08 78 1009.1
20260510002743 19 148 1.6 3.2 0.00 0.00 0.00 91 1010.5
20260510002241 19 142 0.0 1.6 0.00 0.00 0.00 90 1010.6
20260510002206 21 325 0.0 0.0 0.00 0.08 0.08 77 1009.1
20260510001737 20 150 0.0 1.6 0.00 0.00 0.00 89 1010.6
20260510001705 21 325 0.0 0.0 0.00 0.08 0.08 77 1009.3
20260510001236 20 154 0.0 0.0 0.00 0.00 0.00 89 1010.5
20260510001205 21 325 0.0 0.0 0.00 0.08 0.08 77 1009.2
20260510000731 20 154 0.0 0.0 0.00 0.00 0.00 88 1010.7
20260510000705 21 325 0.0 0.0 0.00 0.08 0.08 77 1009.2
20260510000229 20 150 0.0 1.6 0.00 0.00 0.00 88 1010.5
20260510000205 21 325 0.0 0.0 0.00 0.08 0.08 76 1009.2
20260509235725 20 62 0.0 0.0 0.00 0.00 0.00 87 1010.5
20260509235222 20 50 0.0 1.6 0.00 0.00 0.00 86 1010.4
20260509234718 20 157 0.0 0.0 0.00 0.00 0.00 86 1010.7
20260509234215 20 129 0.0 0.0 0.00 0.00 0.00 85 1010.3
20260509234205 22 325 0.0 0.0 0.00 0.08 0.08 76 1008.9
20260509233714 21 154 0.0 0.0 0.00 0.00 0.00 85 1010.3
20260509233210 21 284 0.0 0.0 0.00 0.00 0.00 85 1010.2
20260509232707 21 284 0.0 1.6 0.00 0.00 0.00 84 1010.1
20260509232204 21 297 0.0 0.0 0.00 0.00 0.00 82 1009.8
20260509231705 22 325 0.0 0.0 0.00 0.08 0.08 75 1008.4
20260509231700 21 297 0.0 0.0 0.00 0.00 0.00 82 1009.8
20260509231205 22 325 0.0 1.6 0.00 0.08 0.08 75 1008.6
20260509231158 21 297 0.0 0.0 0.00 0.00 0.00 82 1010.0
20260509230705 22 325 0.0 0.0 0.00 0.08 0.08 75 1008.4
20260509230655 21 269 0.0 0.0 0.00 0.00 0.00 81 1009.9
20260509230151 21 279 3.2 3.2 0.00 0.00 0.00 81 1009.9
20260509225705 22 325 0.0 0.0 0.00 0.08 0.08 74 1008.4
20260509225647 22 299 0.0 1.6 0.00 0.00 0.00 81 1009.8
20260509225143 22 129 0.0 1.6 0.00 0.00 0.00 80 1009.8
20260509224705 22 324 0.0 1.6 0.00 0.08 0.08 73 1008.3
20260509224638 22 124 0.0 0.0 0.00 0.00 0.00 79 1009.7
20260509224135 22 322 0.0 3.2 0.00 0.00 0.00 79 1009.6
20260509223705 22 342 0.0 1.6 0.00 0.08 0.08 73 1008.4
20260509223632 21 260 0.0 3.2 0.00 0.00 0.00 79 1009.7
20260509223130 21 297 0.0 1.6 0.00 0.00 0.00 79 1009.8
20260509222706 22 327 0.0 3.2 0.00 0.10 0.08 73 1008.4
20260509222626 22 334 1.6 1.6 0.00 0.00 0.00 80 1009.8
20260509222206 22 335 0.0 1.6 0.00 0.10 0.08 72 1008.4
20260509222116 22 50 0.0 0.0 0.00 0.00 0.00 79 1009.7
20260509221705 22 320 1.6 4.8 0.00 0.10 0.08 72 1008.4
20260509221612 22 7 0.0 0.0 0.00 0.00 0.00 79 1009.9
20260509221205 22 33 0.0 3.2 0.00 0.10 0.08 71 1008.4
20260509221109 22 180 0.0 1.6 0.00 0.00 0.00 79 1010.0
20260509220604 22 333 0.0 1.6 0.00 0.00 0.00 78 1009.9
20260509220205 22 60 0.0 1.6 0.00 0.10 0.08 71 1008.5
20260509215556 22 336 0.0 1.6 0.00 0.00 0.00 78 1009.9
20260509215054 22 154 0.0 3.2 0.00 0.00 0.00 77 1009.7
20260509214705 22 118 0.0 3.2 0.00 0.10 0.08 71 1008.4
20260509214551 22 317 0.0 1.6 0.00 0.00 0.00 77 1009.9
20260509214048 22 205 0.0 6.4 0.00 0.00 0.00 77 1009.6
20260509213544 22 110 0.0 3.2 0.00 0.00 0.00 76 1009.8
20260509213205 22 64 0.0 1.6 0.03 0.10 0.08 73 1008.2
20260509213041 22 209 0.0 3.2 0.00 0.00 0.00 77 1009.5
20260509212538 22 271 3.2 4.8 0.00 0.00 0.00 77 1009.7
20260509212035 22 335 1.6 3.2 0.00 0.00 0.00 77 1010.0
20260509211530 22 357 0.0 3.2 0.00 0.00 0.00 76 1009.6
20260509211206 22 48 1.6 4.8 0.03 0.10 0.08 71 1008.3
20260509211027 22 275 1.6 1.6 0.00 0.00 0.00 77 1009.5
20260509210524 22 326 0.0 4.8 0.00 0.00 0.00 76 1009.6
20260509210205 22 52 0.0 3.2 0.03 0.10 0.08 70 1008.3
20260509210020 22 193 0.0 6.4 0.00 0.00 0.00 75 1009.8
20260509205515 22 269 0.0 3.2 0.00 0.00 0.00 74 1009.8
20260509205206 22 40 1.6 4.8 0.03 0.10 0.08 71 1008.0
20260509205010 22 249 0.0 3.2 0.00 0.00 0.00 74 1009.4
20260509204705 22 147 1.6 4.8 0.03 0.10 0.08 70 1007.9
20260509204507 22 310 0.0 6.4 0.00 0.00 0.00 75 1009.3
20260509204003 22 150 1.6 4.8 0.00 0.00 0.00 75 1009.5
20260509203705 22 24 1.6 8.0 0.00 0.08 0.05 73 1008.2
20260509203459 22 228 0.0 4.8 0.00 0.00 0.00 76 1009.6
20260509203205 22 89 1.6 4.8 0.00 0.08 0.05 74 1008.3
20260509202957 21 181 0.0 3.2 0.00 0.00 0.00 78 1009.7
20260509202705 21 16 0.0 3.2 0.00 0.08 0.05 74 1008.1
20260509202453 21 284 0.0 3.2 0.00 0.00 0.00 80 1009.5
20260509202204 21 61 0.0 1.6 0.00 0.08 0.05 74 1008.1
20260509201948 21 100 0.0 3.2 0.00 0.00 0.00 78 1009.7
20260509201443 21 135 0.0 3.2 0.00 0.00 0.00 78 1009.6
20260509201206 21 18 0.0 1.6 0.00 0.08 0.05 74 1008.4
20260509200940 21 269 0.0 1.6 0.00 0.00 0.00 79 1009.8
20260509200705 21 15 1.6 3.2 0.00 0.08 0.05 74 1008.4
20260509200441 21 217 0.0 1.6 0.00 0.00 0.00 78 1009.7
20260509200205 22 52 1.6 3.2 0.00 0.08 0.05 73 1008.4
20260509195937 21 304 0.0 0.0 0.00 0.00 0.00 79 1009.9
20260509195705 22 126 0.0 3.2 0.00 0.08 0.05 73 1008.5
20260509195433 21 304 0.0 1.6 0.00 0.00 0.00 79 1009.8
20260509195205 22 266 1.6 4.8 0.00 0.08 0.05 73 1008.4
20260509194933 21 291 0.0 4.8 0.00 0.00 0.00 78 1009.7
20260509194706 22 97 0.0 1.6 0.00 0.08 0.05 72 1008.4
20260509194428 21 298 1.6 3.2 0.00 0.00 0.00 79 1009.9
20260509194204 22 96 0.0 1.6 0.00 0.08 0.05 72 1008.5
20260509193926 21 341 1.6 3.2 0.00 0.00 0.00 77 1009.8
20260509193425 21 174 0.0 3.2 0.00 0.00 0.00 77 1010.1
20260509193205 22 337 0.0 1.6 0.00 0.08 0.05 70 1008.6
20260509192922 21 352 0.0 1.6 0.00 0.00 0.00 78 1010.1
20260509192418 21 343 0.0 1.6 0.00 0.00 0.00 77 1010.1
20260509191913 21 322 0.0 3.2 0.00 0.00 0.00 78 1010.5
20260509191705 22 39 0.0 1.6 0.00 0.08 0.05 71 1008.9
20260509191409 21 289 0.0 3.2 0.00 0.00 0.00 77 1010.6
20260509190905 21 303 3.2 4.8 0.00 0.00 0.00 75 1010.3